Regional Weather Roundup
Issued by NWS Charleston, SC

Current Version | Previous Version | Graphics & Text | Print | Product List | Glossary On
Versions: 1 2 3 4 5 6 7 8 9 10 11 12 13 14 15 16 17 18 19 20 21 22 23 24 25 26 27 28 29 30 31 32 33 34 35 36 37 38 39 40 41 42 43 44 45 46 47 48 49 50
993 ASUS42 KCHS 270827 RWRCHS REGIONAL WEATHER ROUNDUP NATIONAL WEATHER SERVICE CHARLESTON SC 400 AM EDT TUE JUN 27 2017 NOTE: "FAIR" INDICATES FEW OR NO CLOUDS BELOW 12,000 FEET WITH NO SIGNIFICANT WEATHER AND/OR OBSTRUCTIONS TO VISIBILITY. NOT ALL STATIONS ARE QUALITY CONTROLLED. USE DATA WITH CAUTION... ESPECIALLY DEWPOINT OBSERVATIONS. SCZ027-030-031-034>040-042>050-270900- ...SOUTHEAST SOUTH CAROLINA... CITY SKY/WX TMP DP RH WIND PRES REMARKS N CHARLESTON PTCLDY 70 66 87 CALM 30.02S WATERFRONT PRK N/A 77 70 79 CALM 30.00S JOHNS ISLAND FAIR 72 70 94 CALM 30.01F PINOPOLIS N/A 73 70 88 CALM 29.94F MONCKS CORNER FAIR 66 64 94 CALM 30.02S SUMMERVILLE CLOUDY 68 68 100 CALM 30.03S BEAUFORT MCAS PTCLDY 73 72 96 CALM 30.02F BEAUFORT ARPT FAIR 73 72 94 CALM 30.01F HILTON HEAD IS MOCLDY 75 73 94 CALM 30.02S WALTERBORO CLOUDY 68 64 88 CALM 30.03S ALLENDALE PTSUNNY 70 68 94 CALM 30.02S ...SOUTHERN MIDLANDS AND PEE DEE... CITY SKY/WX TMP DP RH WIND PRES REMARKS GEORGETOWN PTSUNNY 64 64 100 CALM 30.03S KINGSTREE FAIR 63 61 94 CALM 30.02F ORANGEBURG PTCLDY 66 65 96 CALM 30.03F BARNWELL FAIR 66 66 100 CALM 30.04R AIKEN FAIR 63 61 94 CALM 30.07S MANNING FAIR 63 63 100 CALM 30.02F COLUMBIA PTCLDY 67 62 84 CALM 30.02F SUMTER CLEAR 71 60 70 CALM 30.00F FLORENCE CLEAR 66 64 93 CALM 30.03S MYRTLE BEACH CLEAR 69 66 90 N3 30.03F N MYRTLE BEACH CLEAR 66 65 96 CALM 30.02S $$ GAZ063-065-086>088-099>101-113>116-118-119-134>141-150-270900- ...SOUTHEAST GEORGIA... CITY SKY/WX TMP DP RH WIND PRES REMARKS SAVANNAH ARPT PTCLDY 74 71 91 CALM 30.02F HUNTER AAF CLOUDY 75 73 95 CALM 30.00S FORT STEWART CLOUDY 72 72 100 NW3 30.00S STATESBORO CLOUDY 73 32 22 CALM 30.03S SYLVANIA PTSUNNY 72 72 100 CALM 30.04S CLAXTON FAIR 69 69 99 CALM 30.03S FOG ...CSRA...CENTRAL AND FAR SOUTHEAST GEORGIA... CITY SKY/WX TMP DP RH WIND PRES REMARKS THOMSON PTCLDY 64 62 93 CALM 30.10R AUGUSTA-BUSH PTCLDY 65 64 97 SE3 30.02F AUGUSTA-DANIEL PTCLDY 73 60 63 CALM 30.04S SWAINSBORO CLOUDY 70 70 100 CALM 30.05S VIDALIA PTCLDY 73 72 94 CALM 30.04S EASTMAN FAIR 69 69 100 CALM 30.06S HAZLEHURST FAIR 73 73 100 CALM 30.02S ALMA MOCLDY 72 70 93 CALM 30.02S WAYCROSS CLOUDY 74 74 100 CALM 30.01F JESUP FAIR 72 68 88 CALM 30.02S BAXLEY MOCLDY 72 72 100 CALM 30.03S BRUNSWICK FOG 73 73 100 CALM 30.02S VSB 3/4 SAINT SIMONS MOCLDY 76 75 97 NW3 30.00F $$ SCZ027-028-034-036>038-045-046-048>050-GAZ119-141-270900- ...LAKE AND SUPPLEMENTAL COASTAL OBSERVATIONS... STATION/POSITION TIME TEMP WIND PRES WAVE SWELL AIR SEA DIR/SP/G HT/PER HT/PER/DIR (UTC) (F) (DEG/KT/KT) (MB) (FT/S) (FT/S/D) WINYAH BAY 0745 69 300/ 2 1016.0F LAKE MURRAY 0730 75 260/ 4/ 6 1015.9S ACE BASIN NERRS 0730 72 CALM 1017.0S FORT PULASKI 0800 79 84 340/ 3/ 4 1016.7 SAPELO ISLAND 0800 75 CALM 1016.0 $$ ANZ835-935-AMZ111-154-330-350-352-354-370-450-454-472-270900- ...C-MAN AND BUOY OBSERVATIONS... STATION/POSITION TIME TEMP WIND PRES WAVE SWELL AIR SEA DIR/SP/G HT/PER HT/PER/DIR (UTC) (F) (DEG/KT/KT) (MB) (FT/S) (FT/S/D) BUOY 41004 0810 79 81 30/ 6/ 6 1015.6 BUOY 41008 0750 79 82 70/ 2/ 2 1015.9F 2/ 5 2/ 40/ 5 FOLLY BEACH CMAN 0800 76 300/ 3/ 3 1016.9F CAPERS NEARSHORE 0708 85 83 90/ 4/ 8 1016.4F FRIPP NEARSHORE 0708 79 83 80/ 2/ 6 1016.2R STATION/POSITION TIME TEMP WIND PRES WAVE SWELL AIR SEA DIR/SP/G HT/PER HT/PER/DIR (UTC) (F) (DEG/KT/KT) (MB) (FT/S) (FT/S/D) 5E ST. MARYS GA 0730 80 N/A 1/ 8 FRYING PAN BUOY 0810 78 80 30/ 6/ 6 1015.9 BUOY 41025 0750 77 81 330/ 6/ 6 1015.8F 1/ 8 2/150/ 8 CAPE LOOKOUT NC 0800 76 20/ 1/ 1 1015.7F BUOY 41002 0750 80 80 220/ 10/ 14 1015.9R 3/ 6 3/220/ 6 BUOY 41010 0810 83 83 170/ 17/ 21 1014.9 ST AUGUSTINE FL 0800 74 78 310/ 2/ 2 1016.1R $$

USA.gov is the U.S. government's official web portal to all federal, state and local government web resources and services.